HFY252 SKBO-GOBD

Flight info

Callsign HFY252
Flight time 7h 43m
Altitude 37000
Route MAVDA UW20 AUC DCT MIQ UN669 ELJEZ/M081F370 DCT 2150N DCT 2340N DCT 22N036W DCT ERNEK/N0473F370 DCT EVKAS DCT BVT DCT MOGSA DCT PIVSA
Aircraft A343/H-SDE2E3FGHIJ4J5M1RWXY/LB1D1

Departure

Time 2026-04-25 13:32
Airport El Dorado International Airport (SKBO)

Arrival

Time 2026-04-25 21:15
Airport Blaise Diagne International Airport (GOBD)
Time Latitude Longitude Altitude Speed Heading
2026-04-25 11:51 4.70025 -74.14178 8372 ft 0 kts 217°
2026-04-25 12:58 4.70029 -74.14175 8373 ft 3 kts 217°
2026-04-25 12:58 4.70050 -74.14159 8374 ft 4 kts 217°
2026-04-25 12:59 4.70072 -74.14143 8375 ft 4 kts 217°
2026-04-25 12:59 4.70091 -74.14128 8374 ft 4 kts 232°
2026-04-25 12:59 4.70094 -74.14108 8377 ft 4 kts 333°
2026-04-25 12:59 4.70077 -74.14098 8375 ft 4 kts 265°
2026-04-25 13:00 4.70057 -74.14109 8372 ft 2 kts 25°
2026-04-25 13:00 4.70071 -74.14109 8372 ft 4 kts 347°
2026-04-25 13:00 4.70098 -74.14131 8376 ft 4 kts 312°
2026-04-25 13:00 4.70107 -74.14143 8373 ft 1 kts 307°
2026-04-25 13:01 4.70113 -74.14151 8373 ft 1 kts 307°
2026-04-25 13:01 4.70114 -74.14152 8376 ft 1 kts 307°
2026-04-25 13:01 4.70122 -74.14162 8374 ft 2 kts 307°
2026-04-25 13:02 4.70123 -74.14164 8374 ft 0 kts 307°
2026-04-25 13:03 4.70125 -74.14167 8372 ft 2 kts 307°
2026-04-25 13:03 4.70142 -74.14190 8373 ft 6 kts 307°
2026-04-25 13:04 4.70165 -74.14212 8372 ft 3 kts 324°
2026-04-25 13:04 4.70186 -74.14219 8376 ft 5 kts 346°
2026-04-25 13:04 4.70243 -74.14228 8376 ft 11 kts 341°
2026-04-25 13:04 4.70313 -74.14295 8373 ft 16 kts 308°
2026-04-25 13:05 4.70368 -74.14369 8374 ft 10 kts 306°
2026-04-25 13:05 4.70401 -74.14413 8373 ft 8 kts 307°
2026-04-25 13:05 4.70433 -74.14482 8375 ft 15 kts 271°
2026-04-25 13:05 4.70377 -74.14551 8373 ft 10 kts 218°
2026-04-25 13:06 4.70323 -74.14592 8375 ft 13 kts 216°
2026-04-25 13:06 4.70238 -74.14656 8374 ft 17 kts 217°
2026-04-25 13:06 4.70151 -74.14722 8374 ft 13 kts 217°
2026-04-25 13:06 4.70080 -74.14775 8374 ft 15 kts 217°
2026-04-25 13:07 4.70006 -74.14831 8375 ft 11 kts 216°
2026-04-25 13:07 4.69963 -74.14863 8373 ft 5 kts 217°
2026-04-25 13:07 4.69935 -74.14884 8374 ft 7 kts 217°
2026-04-25 13:07 4.69898 -74.14913 8374 ft 4 kts 218°
2026-04-25 13:08 4.69888 -74.14922 8374 ft 3 kts 222°
2026-04-25 13:08 4.69867 -74.14966 8375 ft 10 kts 265°
2026-04-25 13:08 4.69915 -74.15055 8376 ft 19 kts 307°
2026-04-25 13:08 4.69979 -74.15141 8372 ft 11 kts 308°
2026-04-25 13:09 4.70040 -74.15220 8373 ft 19 kts 308°
2026-04-25 13:09 4.70105 -74.15306 8375 ft 10 kts 307°
2026-04-25 13:09 4.70150 -74.15366 8372 ft 14 kts 307°
2026-04-25 13:09 4.70206 -74.15439 8374 ft 14 kts 308°
2026-04-25 13:10 4.70283 -74.15540 8373 ft 19 kts 307°
2026-04-25 13:10 4.70359 -74.15642 8372 ft 17 kts 307°
2026-04-25 13:10 4.70405 -74.15702 8373 ft 8 kts 307°
2026-04-25 13:10 4.70434 -74.15741 8373 ft 6 kts 307°
2026-04-25 13:11 4.70453 -74.15766 8373 ft 3 kts 307°
2026-04-25 13:11 4.70462 -74.15777 8377 ft 1 kts 307°
2026-04-25 13:11 4.70462 -74.15778 8377 ft 1 kts 307°
2026-04-25 13:11 4.70484 -74.15807 8373 ft 9 kts 307°
2026-04-25 13:12 4.70535 -74.15875 8374 ft 15 kts 308°
2026-04-25 13:12 4.70612 -74.15977 8373 ft 21 kts 307°
2026-04-25 13:12 4.70704 -74.16100 8374 ft 22 kts 307°
2026-04-25 13:12 4.70767 -74.16181 8373 ft 22 kts 308°
2026-04-25 13:13 4.70869 -74.16314 8376 ft 14 kts 307°
2026-04-25 13:13 4.70929 -74.16395 8373 ft 15 kts 307°
2026-04-25 13:13 4.70995 -74.16484 8374 ft 17 kts 307°
2026-04-25 13:13 4.71008 -74.16500 8373 ft 0 kts 308°
2026-04-25 13:15 4.71020 -74.16515 8373 ft 7 kts 309°
2026-04-25 13:15 4.71054 -74.16559 8374 ft 0 kts 307°
2026-04-25 13:16 4.71056 -74.16561 8374 ft 2 kts 307°
2026-04-25 13:17 4.71069 -74.16578 8373 ft 4 kts 307°
2026-04-25 13:17 4.71092 -74.16608 8374 ft 7 kts 307°
2026-04-25 13:17 4.71122 -74.16649 8373 ft 8 kts 306°
2026-04-25 13:17 4.71154 -74.16691 8376 ft 5 kts 307°
2026-04-25 13:18 4.71155 -74.16693 8376 ft 0 kts 307°
2026-04-25 13:19 4.71163 -74.16703 8373 ft 5 kts 307°
2026-04-25 13:20 4.71196 -74.16747 8375 ft 4 kts 307°
2026-04-25 13:20 4.71200 -74.16756 8374 ft 0 kts 291°
2026-04-25 13:24 4.71201 -74.16759 8377 ft 2 kts 286°
2026-04-25 13:25 4.71193 -74.16790 8374 ft 7 kts 242°
2026-04-25 13:25 4.71162 -74.16821 8374 ft 0 kts 219°
2026-04-25 13:27 4.71149 -74.16831 8375 ft 7 kts 219°
2026-04-25 13:28 4.71089 -74.16881 8376 ft 14 kts 220°
2026-04-25 13:28 4.71069 -74.16892 8372 ft 8 kts 202°
2026-04-25 13:28 4.71028 -74.16875 8373 ft 6 kts 139°
2026-04-25 13:28 4.71014 -74.16859 8377 ft 0 kts 129°
2026-04-25 13:31 4.70620 -74.16340 8376 ft 93 kts 127°
2026-04-25 13:31 4.70145 -74.15713 8375 ft 133 kts 127°
2026-04-25 13:31 4.69514 -74.14879 8375 ft 167 kts 127°
2026-04-25 13:31 4.68775 -74.13882 8604 ft 181 kts 125°
2026-04-25 13:32 4.67963 -74.12831 8885 ft 195 kts 129°
2026-04-25 13:32 4.66993 -74.11848 9393 ft 204 kts 152°
2026-04-25 13:32 4.65588 -74.11646 9697 ft 216 kts 194°
2026-04-25 13:32 4.64323 -74.12500 9940 ft 230 kts 236°
2026-04-25 13:33 4.63713 -74.13997 10319 ft 236 kts 255°
2026-04-25 13:33 4.63270 -74.15596 10692 ft 241 kts 253°
2026-04-25 13:33 4.62767 -74.17228 11102 ft 248 kts 252°
2026-04-25 13:33 4.62585 -74.17783 11293 ft 247 kts 252°
2026-04-25 13:34 4.61663 -74.20487 12202 ft 248 kts 254°
2026-04-25 13:34 4.61265 -74.22194 12570 ft 258 kts 259°
2026-04-25 13:34 4.60918 -74.24017 12797 ft 274 kts 259°
2026-04-25 13:34 4.60542 -74.25952 13015 ft 291 kts 257°
2026-04-25 13:35 4.59722 -74.27828 13338 ft 300 kts 232°
2026-04-25 13:35 4.58330 -74.29409 13834 ft 305 kts 226°
2026-04-25 13:35 4.56834 -74.30936 14339 ft 309 kts 226°
2026-04-25 13:35 4.55318 -74.32477 14807 ft 312 kts 226°
2026-04-25 13:36 4.53773 -74.34020 15278 ft 315 kts 222°
2026-04-25 13:36 4.51998 -74.35329 15641 ft 322 kts 212°
2026-04-25 13:36 4.50043 -74.36513 15796 ft 335 kts 211°
2026-04-25 13:36 4.47991 -74.37721 15987 ft 348 kts 211°
2026-04-25 13:37 4.45869 -74.38974 16153 ft 360 kts 211°
2026-04-25 13:37 4.43679 -74.40273 16356 ft 372 kts 211°
2026-04-25 13:37 4.41416 -74.41622 16563 ft 384 kts 211°
2026-04-25 13:37 4.39084 -74.43012 16761 ft 395 kts 211°
2026-04-25 13:38 4.36691 -74.44438 16981 ft 405 kts 211°
2026-04-25 13:38 4.34241 -74.45894 17218 ft 413 kts 211°
2026-04-25 13:38 4.31658 -74.47188 17585 ft 418 kts 203°
2026-04-25 13:38 4.28871 -74.48070 17990 ft 422 kts 191°
2026-04-25 13:39 4.25930 -74.48247 18397 ft 427 kts 175°
2026-04-25 13:39 4.23042 -74.47523 18776 ft 432 kts 156°
2026-04-25 13:39 4.20495 -74.45928 19161 ft 435 kts 138°
2026-04-25 13:39 4.18543 -74.43613 19538 ft 438 kts 121°
2026-04-25 13:40 4.17384 -74.40840 19948 ft 440 kts 103°
2026-04-25 13:40 4.17102 -74.37792 20374 ft 442 kts 85°
2026-04-25 13:40 4.17752 -74.34754 20803 ft 442 kts 68°
2026-04-25 13:40 4.19223 -74.32106 21185 ft 442 kts 52°
2026-04-25 13:41 4.21232 -74.29772 21559 ft 444 kts 45°
2026-04-25 13:41 4.23407 -74.27572 21939 ft 445 kts 44°
2026-04-25 13:41 4.25588 -74.25358 22284 ft 448 kts 45°
2026-04-25 13:41 4.27717 -74.23072 22646 ft 450 kts 47°
2026-04-25 13:42 4.29783 -74.20710 23025 ft 452 kts 49°
2026-04-25 13:42 4.31805 -74.18285 23399 ft 454 kts 50°
2026-04-25 13:42 4.33796 -74.15826 23690 ft 456 kts 51°
2026-04-25 13:42 4.35781 -74.13342 23948 ft 457 kts 51°
2026-04-25 13:43 4.37768 -74.10845 24201 ft 459 kts 51°
2026-04-25 13:43 4.39763 -74.08341 24496 ft 461 kts 51°
2026-04-25 13:43 4.41775 -74.05823 24755 ft 463 kts 51°
2026-04-25 13:43 4.43795 -74.03300 25017 ft 465 kts 51°
2026-04-25 13:44 4.45825 -74.00767 25294 ft 467 kts 51°
2026-04-25 13:44 4.47864 -73.98226 25512 ft 469 kts 51°
2026-04-25 13:44 4.49910 -73.95677 25615 ft 469 kts 51°
2026-04-25 13:44 4.51956 -73.93126 25728 ft 470 kts 51°
2026-04-25 13:45 4.54006 -73.90572 25833 ft 471 kts 51°
2026-04-25 13:45 4.56061 -73.88012 25966 ft 471 kts 51°
2026-04-25 13:45 4.58116 -73.85452 26084 ft 472 kts 51°
2026-04-25 13:45 4.60178 -73.82883 26199 ft 473 kts 52°
2026-04-25 13:46 4.61543 -73.81183 26275 ft 474 kts 52°
2026-04-25 13:46 4.63609 -73.78608 26276 ft 475 kts 52°
2026-04-25 13:46 4.65675 -73.76031 26277 ft 475 kts 52°
2026-04-25 13:46 4.67747 -73.73447 26277 ft 475 kts 52°
2026-04-25 13:47 4.69815 -73.70867 26293 ft 475 kts 52°
2026-04-25 13:47 4.71882 -73.68288 26292 ft 475 kts 52°
2026-04-25 13:47 4.73949 -73.65709 26293 ft 475 kts 52°
2026-04-25 13:47 4.76017 -73.63130 26255 ft 475 kts 52°
2026-04-25 13:48 4.78085 -73.60549 26257 ft 475 kts 52°
2026-04-25 13:48 4.80158 -73.57962 26256 ft 476 kts 52°
2026-04-25 13:48 4.82231 -73.55373 26257 ft 476 kts 52°
2026-04-25 13:48 4.84304 -73.52782 26272 ft 476 kts 52°
2026-04-25 13:49 4.86380 -73.50187 26233 ft 476 kts 52°
2026-04-25 13:49 4.88455 -73.47597 26232 ft 476 kts 51°
2026-04-25 13:49 4.90532 -73.45009 26230 ft 477 kts 51°
2026-04-25 13:49 4.92611 -73.42418 26230 ft 477 kts 51°
2026-04-25 13:50 4.94686 -73.39828 26230 ft 476 kts 52°
2026-04-25 13:50 4.96759 -73.37239 26244 ft 476 kts 52°
2026-04-25 13:50 4.98832 -73.34649 26202 ft 476 kts 52°
2026-04-25 13:50 5.00905 -73.32059 26207 ft 476 kts 52°
2026-04-25 13:51 5.02978 -73.29469 26208 ft 476 kts 52°
2026-04-25 13:51 5.05054 -73.26874 26206 ft 476 kts 52°
2026-04-25 13:51 5.07126 -73.24284 26206 ft 476 kts 52°
2026-04-25 13:51 5.09198 -73.21696 26167 ft 476 kts 52°
2026-04-25 13:52 5.11239 -73.19145 26193 ft 477 kts 52°
2026-04-25 13:52 5.13313 -73.16553 26195 ft 476 kts 52°
2026-04-25 13:52 5.15444 -73.13887 26195 ft 475 kts 52°
2026-04-25 13:52 5.17453 -73.11376 26195 ft 475 kts 52°
2026-04-25 13:53 5.19521 -73.08791 26163 ft 475 kts 52°
2026-04-25 13:53 5.21589 -73.06204 26162 ft 475 kts 52°
2026-04-25 13:53 5.23658 -73.03615 26162 ft 475 kts 52°
2026-04-25 13:53 5.25726 -73.01027 26214 ft 476 kts 52°
2026-04-25 13:54 5.27804 -72.98427 26449 ft 478 kts 52°
2026-04-25 13:54 5.29886 -72.95823 26747 ft 479 kts 52°
2026-04-25 13:54 5.31973 -72.93210 26945 ft 481 kts 52°
2026-04-25 13:54 5.34071 -72.90583 27180 ft 484 kts 52°
2026-04-25 13:55 5.36180 -72.87945 27430 ft 485 kts 52°
2026-04-25 13:55 5.38297 -72.85296 27706 ft 487 kts 52°
2026-04-25 13:55 5.40417 -72.82643 27988 ft 488 kts 52°
2026-04-25 13:55 5.42544 -72.79980 28201 ft 490 kts 52°
2026-04-25 13:56 5.44678 -72.77307 28441 ft 492 kts 52°
2026-04-25 13:56 5.46820 -72.74626 28678 ft 494 kts 52°
2026-04-25 13:56 5.48972 -72.71929 28851 ft 496 kts 53°
2026-04-25 13:56 5.51130 -72.69225 29151 ft 496 kts 53°
2026-04-25 13:57 5.53284 -72.66527 29504 ft 495 kts 53°
2026-04-25 13:57 5.54706 -72.64744 29752 ft 494 kts 53°
2026-04-25 13:57 5.57578 -72.61148 30167 ft 493 kts 53°
2026-04-25 13:57 5.59722 -72.58464 30457 ft 493 kts 53°
2026-04-25 13:58 5.61859 -72.55784 30754 ft 491 kts 53°
2026-04-25 13:58 5.63995 -72.53104 30980 ft 490 kts 53°
2026-04-25 13:58 5.66124 -72.50436 31246 ft 489 kts 53°
2026-04-25 13:58 5.68249 -72.47772 31541 ft 489 kts 53°
2026-04-25 13:59 5.70367 -72.45107 31872 ft 487 kts 53°
2026-04-25 13:59 5.72477 -72.42455 32156 ft 486 kts 53°
2026-04-25 13:59 5.74587 -72.39808 32400 ft 485 kts 53°
2026-04-25 13:59 5.76695 -72.37166 32615 ft 484 kts 53°
2026-04-25 14:00 5.78771 -72.34563 32852 ft 484 kts 53°
2026-04-25 14:00 5.80898 -72.31895 33111 ft 483 kts 54°
2026-04-25 14:00 5.82965 -72.29302 33399 ft 481 kts 54°
2026-04-25 14:00 5.85048 -72.26689 33709 ft 479 kts 54°
2026-04-25 14:01 5.87126 -72.24079 33874 ft 479 kts 54°
2026-04-25 14:01 5.89212 -72.21457 34051 ft 480 kts 54°
2026-04-25 14:01 5.91292 -72.18841 34214 ft 480 kts 54°
2026-04-25 14:01 5.93381 -72.16234 34365 ft 480 kts 54°
2026-04-25 14:02 5.95460 -72.13612 34593 ft 479 kts 54°
2026-04-25 14:02 5.97529 -72.10997 34735 ft 478 kts 54°
2026-04-25 14:02 5.99603 -72.08389 34916 ft 477 kts 54°
2026-04-25 14:02 6.01004 -72.06628 35018 ft 477 kts 54°
2026-04-25 14:03 6.03747 -72.03185 35227 ft 477 kts 54°
2026-04-25 14:03 6.05817 -72.00584 35425 ft 476 kts 54°
2026-04-25 14:03 6.07889 -71.97987 35591 ft 475 kts 54°
2026-04-25 14:03 6.09954 -71.95394 35734 ft 475 kts 54°
2026-04-25 14:04 6.12016 -71.92801 35936 ft 474 kts 54°
2026-04-25 14:04 6.14072 -71.90213 36067 ft 474 kts 53°
2026-04-25 14:04 6.16131 -71.87623 36135 ft 475 kts 53°
2026-04-25 14:04 6.18193 -71.85027 36246 ft 476 kts 53°
2026-04-25 14:05 6.20257 -71.82431 36369 ft 475 kts 53°
2026-04-25 14:05 6.22317 -71.79839 36529 ft 474 kts 53°
2026-04-25 14:05 6.24375 -71.77249 36675 ft 474 kts 53°
2026-04-25 14:05 6.26434 -71.74656 36810 ft 474 kts 53°
2026-04-25 14:06 6.28487 -71.72071 36946 ft 473 kts 53°
2026-04-25 14:06 6.32602 -71.66882 36980 ft 476 kts 53°
2026-04-25 14:07 6.36726 -71.61691 37032 ft 474 kts 53°
2026-04-25 14:07 6.40832 -71.56512 37029 ft 474 kts 53°
2026-04-25 14:08 6.44954 -71.51328 37005 ft 475 kts 53°
2026-04-25 14:08 6.49079 -71.46135 36992 ft 475 kts 53°
2026-04-25 14:09 6.53203 -71.40935 36982 ft 477 kts 53°
2026-04-25 14:09 6.57344 -71.35702 36980 ft 479 kts 53°
2026-04-25 14:10 6.61465 -71.30500 36981 ft 478 kts 52°
2026-04-25 14:10 6.65612 -71.25268 36981 ft 479 kts 52°
2026-04-25 14:11 6.69764 -71.20037 36981 ft 479 kts 52°
2026-04-25 14:11 6.73910 -71.14798 36980 ft 479 kts 53°
2026-04-25 14:12 6.78052 -71.09559 36983 ft 478 kts 53°
2026-04-25 14:12 6.82196 -71.04320 36981 ft 478 kts 53°
2026-04-25 14:13 6.86344 -70.99081 36983 ft 479 kts 52°
2026-04-25 14:13 6.90497 -70.93835 36985 ft 479 kts 53°
2026-04-25 14:14 6.94636 -70.88593 36982 ft 478 kts 53°
2026-04-25 14:14 6.98780 -70.83345 36985 ft 479 kts 53°
2026-04-25 14:15 7.02932 -70.78087 36985 ft 480 kts 53°
2026-04-25 14:15 7.07173 -70.72898 36995 ft 481 kts 48°
2026-04-25 14:16 7.11774 -70.67992 36993 ft 484 kts 47°
2026-04-25 14:16 7.16455 -70.63114 36995 ft 482 kts 47°
2026-04-25 14:17 7.21140 -70.58247 36986 ft 486 kts 47°
2026-04-25 14:17 7.25871 -70.53326 36985 ft 491 kts 47°
2026-04-25 14:18 7.30620 -70.48344 36987 ft 493 kts 47°
2026-04-25 14:18 7.35336 -70.43391 37002 ft 488 kts 47°
2026-04-25 14:19 7.40033 -70.38497 37004 ft 485 kts 47°
2026-04-25 14:19 7.44747 -70.33597 36986 ft 488 kts 47°
2026-04-25 14:20 7.49474 -70.28672 37007 ft 489 kts 47°
2026-04-25 14:20 7.54184 -70.23745 36990 ft 487 kts 47°
2026-04-25 14:21 7.58890 -70.18824 36988 ft 486 kts 47°
2026-04-25 14:21 7.63604 -70.13908 36991 ft 488 kts 47°
2026-04-25 14:22 7.68304 -70.08955 36987 ft 490 kts 47°
2026-04-25 14:22 7.73046 -70.04007 36990 ft 491 kts 47°
2026-04-25 14:23 7.77760 -69.99093 37009 ft 491 kts 47°
2026-04-25 14:23 7.82496 -69.94130 36986 ft 490 kts 47°
2026-04-25 14:24 7.87206 -69.89174 36992 ft 489 kts 47°
2026-04-25 14:24 7.91937 -69.84209 36994 ft 491 kts 47°
2026-04-25 14:25 7.96691 -69.79237 36992 ft 490 kts 47°
2026-04-25 14:25 8.01441 -69.74258 36993 ft 493 kts 47°
2026-04-25 14:26 8.06176 -69.69279 36996 ft 492 kts 47°
2026-04-25 14:26 8.10930 -69.64306 36998 ft 492 kts 47°
2026-04-25 14:27 8.15358 -69.59655 37006 ft 492 kts 47°
2026-04-25 14:27 8.20099 -69.54668 37004 ft 491 kts 47°
2026-04-25 14:28 8.24834 -69.49686 37001 ft 494 kts 46°
2026-04-25 14:28 8.29607 -69.44676 36998 ft 495 kts 47°
2026-04-25 14:29 8.34367 -69.39668 37003 ft 494 kts 47°
2026-04-25 14:29 8.39123 -69.34663 36996 ft 494 kts 47°
2026-04-25 14:30 8.43893 -69.29672 37001 ft 493 kts 47°
2026-04-25 14:30 8.51020 -69.22147 37005 ft 494 kts 47°
2026-04-25 14:31 8.55777 -69.17125 36997 ft 496 kts 47°
2026-04-25 14:31 8.60565 -69.12072 36996 ft 498 kts 47°
2026-04-25 14:32 8.65359 -69.07018 36998 ft 498 kts 47°
2026-04-25 14:32 8.70140 -69.01978 36997 ft 503 kts 47°
2026-04-25 14:33 8.75001 -68.96850 36997 ft 507 kts 47°
2026-04-25 14:33 8.79901 -68.91677 37002 ft 510 kts 47°
2026-04-25 14:34 8.84806 -68.86498 37000 ft 509 kts 47°
2026-04-25 14:34 8.89692 -68.81339 36991 ft 507 kts 47°
2026-04-25 14:35 8.94570 -68.76182 36996 ft 507 kts 47°
2026-04-25 14:35 8.98621 -68.71900 36994 ft 507 kts 47°
2026-04-25 14:36 9.03523 -68.66714 36998 ft 506 kts 47°
2026-04-25 14:36 9.08390 -68.61565 36995 ft 506 kts 47°
2026-04-25 14:37 9.13230 -68.56442 36991 ft 507 kts 47°
2026-04-25 14:37 9.18102 -68.51282 36999 ft 507 kts 47°
2026-04-25 14:38 9.22974 -68.46119 36992 ft 507 kts 47°
2026-04-25 14:38 9.27847 -68.40954 36994 ft 507 kts 47°
2026-04-25 14:39 9.32720 -68.35788 36993 ft 507 kts 47°
2026-04-25 14:39 9.37594 -68.30619 36992 ft 507 kts 47°
2026-04-25 14:40 9.41644 -68.26326 36995 ft 507 kts 47°
2026-04-25 14:40 9.47335 -68.20276 36996 ft 507 kts 47°
2026-04-25 14:41 9.52206 -68.15103 36997 ft 508 kts 48°
2026-04-25 14:41 9.57077 -68.09921 37005 ft 509 kts 47°
2026-04-25 14:42 9.61138 -68.05606 37004 ft 509 kts 48°
2026-04-25 14:42 9.66861 -67.99525 37004 ft 509 kts 47°
2026-04-25 14:43 9.71742 -67.94332 37006 ft 509 kts 47°
2026-04-25 14:43 9.76620 -67.89137 37007 ft 509 kts 47°
2026-04-25 14:44 9.81497 -67.83935 37012 ft 509 kts 47°
2026-04-25 14:44 9.86398 -67.78714 37016 ft 512 kts 47°
2026-04-25 14:45 9.91318 -67.73471 37019 ft 513 kts 47°
2026-04-25 14:45 9.96242 -67.68220 37020 ft 513 kts 47°
2026-04-25 14:46 10.01160 -67.62974 37021 ft 513 kts 47°
2026-04-25 14:46 10.06075 -67.57726 37015 ft 513 kts 47°
2026-04-25 14:47 10.10163 -67.53363 37014 ft 513 kts 48°
2026-04-25 14:47 10.15907 -67.47226 37014 ft 512 kts 48°
2026-04-25 14:48 10.20811 -67.41981 37008 ft 512 kts 48°
2026-04-25 14:48 10.25716 -67.36736 37014 ft 513 kts 48°
2026-04-25 14:49 10.30628 -67.31479 37015 ft 513 kts 48°
2026-04-25 14:49 10.35535 -67.26226 37021 ft 512 kts 48°
2026-04-25 14:50 10.40435 -67.20976 37019 ft 512 kts 48°
2026-04-25 14:50 10.45336 -67.15726 37011 ft 512 kts 48°
2026-04-25 14:51 10.50245 -67.10463 37009 ft 515 kts 48°
2026-04-25 14:51 10.55177 -67.05166 36962 ft 514 kts 48°
2026-04-25 14:52 10.60069 -66.99848 36964 ft 515 kts 51°
2026-04-25 14:52 10.63593 -66.95011 36966 ft 514 kts 57°
2026-04-25 14:53 10.68268 -66.88086 36973 ft 511 kts 58°
2026-04-25 14:53 10.72216 -66.82058 36974 ft 512 kts 58°
2026-04-25 14:54 10.76195 -66.76039 36980 ft 513 kts 58°
2026-04-25 14:54 10.80204 -66.69995 36979 ft 516 kts 58°
2026-04-25 14:55 10.84222 -66.63943 36962 ft 516 kts 57°
2026-04-25 14:55 10.88238 -66.57906 36964 ft 516 kts 58°
2026-04-25 14:56 10.92245 -66.51848 36964 ft 516 kts 58°
2026-04-25 14:56 10.96254 -66.45788 36960 ft 516 kts 58°
2026-04-25 14:57 11.00262 -66.39731 36958 ft 516 kts 58°
2026-04-25 14:57 11.04283 -66.33678 36960 ft 516 kts 57°
2026-04-25 14:58 11.08375 -66.27661 36963 ft 518 kts 57°
2026-04-25 14:58 11.12487 -66.21642 36962 ft 517 kts 57°
2026-04-25 14:59 11.16583 -66.15625 36962 ft 516 kts 57°
2026-04-25 14:59 11.20641 -66.09653 36966 ft 516 kts 57°
2026-04-25 15:00 11.24723 -66.03632 36968 ft 517 kts 57°
2026-04-25 15:00 11.28807 -65.97608 36967 ft 516 kts 57°
2026-04-25 15:01 11.32884 -65.91591 36963 ft 516 kts 57°
2026-04-25 15:01 11.36957 -65.85581 36967 ft 515 kts 57°
2026-04-25 15:02 11.41028 -65.79573 36967 ft 515 kts 57°
2026-04-25 15:02 11.45096 -65.73552 36967 ft 516 kts 57°
2026-04-25 15:03 11.49187 -65.67537 36966 ft 518 kts 57°
2026-04-25 15:03 11.53268 -65.61508 36970 ft 516 kts 57°
2026-04-25 15:04 11.57348 -65.55456 36971 ft 519 kts 57°
2026-04-25 15:04 11.61426 -65.49376 36970 ft 518 kts 57°
2026-04-25 15:05 11.65503 -65.43285 36979 ft 520 kts 57°
2026-04-25 15:06 11.71641 -65.34254 36973 ft 517 kts 56°
2026-04-25 15:06 11.75853 -65.28247 36969 ft 516 kts 55°
2026-04-25 15:07 11.80020 -65.22252 36968 ft 520 kts 56°
2026-04-25 15:07 11.84178 -65.16201 36966 ft 523 kts 56°
2026-04-25 15:08 11.88385 -65.10117 36972 ft 524 kts 56°
2026-04-25 15:08 11.92550 -65.04083 36971 ft 523 kts 56°
2026-04-25 15:09 11.96768 -64.97967 36973 ft 523 kts 56°
2026-04-25 15:09 12.03057 -64.88839 36971 ft 525 kts 56°
2026-04-25 15:10 12.07220 -64.82774 36967 ft 525 kts 56°
2026-04-25 15:11 12.13528 -64.73597 36971 ft 526 kts 56°
2026-04-25 15:11 12.17735 -64.67476 36974 ft 527 kts 56°
2026-04-25 15:12 12.24039 -64.58295 36973 ft 525 kts 56°
2026-04-25 15:12 12.26846 -64.54202 36972 ft 526 kts 56°
2026-04-25 15:13 12.34523 -64.43014 36969 ft 525 kts 56°
2026-04-25 15:14 12.38707 -64.36888 36974 ft 525 kts 56°
2026-04-25 15:14 12.42850 -64.30725 36975 ft 525 kts 57°
2026-04-25 15:15 12.46982 -64.24569 36974 ft 525 kts 57°
2026-04-25 15:15 12.51126 -64.18411 36973 ft 524 kts 57°
2026-04-25 15:16 12.55274 -64.12263 36974 ft 524 kts 57°
2026-04-25 15:16 12.61515 -64.03005 36977 ft 525 kts 57°
2026-04-25 15:17 12.67706 -63.93770 36978 ft 524 kts 57°
2026-04-25 15:18 12.71830 -63.87634 36978 ft 522 kts 57°
2026-04-25 15:18 12.78015 -63.78419 36980 ft 522 kts 57°
2026-04-25 15:19 12.80740 -63.74351 36980 ft 524 kts 57°
2026-04-25 15:19 12.86273 -63.66130 36975 ft 524 kts 53°
2026-04-25 15:20 12.90818 -63.60298 36980 ft 524 kts 51°
2026-04-25 15:20 12.95444 -63.54533 36980 ft 523 kts 51°
2026-04-25 15:21 12.99304 -63.49747 36977 ft 524 kts 51°
2026-04-25 15:21 13.03940 -63.43979 36981 ft 524 kts 51°
2026-04-25 15:22 13.08570 -63.38204 36979 ft 524 kts 51°
2026-04-25 15:22 13.13207 -63.32418 36980 ft 525 kts 51°
2026-04-25 15:23 13.17841 -63.26634 36979 ft 525 kts 51°
2026-04-25 15:23 13.22474 -63.20846 36982 ft 525 kts 51°
2026-04-25 15:24 13.27105 -63.15056 36980 ft 524 kts 51°
2026-04-25 15:24 13.30946 -63.10244 36982 ft 524 kts 51°
2026-04-25 15:25 13.36348 -63.03484 36989 ft 524 kts 51°
2026-04-25 15:25 13.40975 -62.97690 36985 ft 525 kts 51°
2026-04-25 15:26 13.45608 -62.91881 36982 ft 526 kts 51°
2026-04-25 15:26 13.50240 -62.86070 36982 ft 526 kts 51°
2026-04-25 15:27 13.54871 -62.80258 36981 ft 525 kts 52°
2026-04-25 15:28 13.61802 -62.71547 36983 ft 525 kts 52°
2026-04-25 15:28 13.66390 -62.65778 36987 ft 525 kts 52°
2026-04-25 15:29 13.71052 -62.59912 36988 ft 526 kts 52°
2026-04-25 15:29 13.75655 -62.54124 36988 ft 527 kts 52°
2026-04-25 15:30 13.80286 -62.48286 36984 ft 527 kts 52°
2026-04-25 15:30 13.84914 -62.42450 36987 ft 526 kts 52°
2026-04-25 15:31 13.89539 -62.36612 36988 ft 526 kts 52°
2026-04-25 15:31 13.94172 -62.30767 36987 ft 527 kts 52°
2026-04-25 15:32 13.98801 -62.24915 36984 ft 528 kts 52°
2026-04-25 15:32 14.03444 -62.19041 36985 ft 528 kts 52°
2026-04-25 15:33 14.10423 -62.10231 36987 ft 530 kts 51°
2026-04-25 15:33 14.15077 -62.04331 36987 ft 530 kts 52°
2026-04-25 15:34 14.19719 -61.98438 36987 ft 529 kts 51°
2026-04-25 15:34 14.23577 -61.93547 36989 ft 530 kts 52°
2026-04-25 15:35 14.31337 -61.83680 36989 ft 532 kts 52°
2026-04-25 15:36 14.38300 -61.74829 36985 ft 532 kts 52°
2026-04-25 15:36 14.42992 -61.68864 36986 ft 533 kts 52°
2026-04-25 15:37 14.47626 -61.62970 36994 ft 532 kts 52°
2026-04-25 15:37 14.52283 -61.57053 36991 ft 531 kts 52°
2026-04-25 15:38 14.56938 -61.51151 36987 ft 531 kts 52°
2026-04-25 15:38 14.61583 -61.45203 36988 ft 532 kts 52°
2026-04-25 15:39 14.66227 -61.39245 36989 ft 532 kts 52°
2026-04-25 15:39 14.70871 -61.33301 36983 ft 532 kts 52°
2026-04-25 15:40 14.73986 -61.29315 36994 ft 532 kts 52°
2026-04-25 15:40 14.80187 -61.21379 37000 ft 534 kts 52°
2026-04-25 15:41 14.84851 -61.15409 36990 ft 534 kts 52°
2026-04-25 15:41 14.89512 -61.09438 36994 ft 534 kts 52°
2026-04-25 15:42 14.94172 -61.03460 36997 ft 534 kts 52°
2026-04-25 15:42 14.98826 -60.97480 37002 ft 534 kts 52°
2026-04-25 15:43 15.03490 -60.91486 37002 ft 535 kts 52°
2026-04-25 15:43 15.08160 -60.85481 37004 ft 536 kts 52°
2026-04-25 15:44 15.12832 -60.79477 37004 ft 535 kts 52°
2026-04-25 15:44 15.17492 -60.73467 36999 ft 535 kts 52°
2026-04-25 15:45 15.22149 -60.67464 37001 ft 533 kts 51°
2026-04-25 15:45 15.26012 -60.62503 37005 ft 534 kts 52°
2026-04-25 15:46 15.31445 -60.55455 37004 ft 536 kts 52°
2026-04-25 15:46 15.36109 -60.49424 37003 ft 536 kts 51°
2026-04-25 15:47 15.40779 -60.43395 36999 ft 535 kts 51°
2026-04-25 15:47 15.45446 -60.37394 37007 ft 536 kts 51°
2026-04-25 15:48 15.50093 -60.31358 36995 ft 536 kts 52°
2026-04-25 15:48 15.54748 -60.25309 37001 ft 537 kts 52°
2026-04-25 15:49 15.59409 -60.19257 37006 ft 538 kts 52°
2026-04-25 15:49 15.64078 -60.13192 37005 ft 537 kts 51°
2026-04-25 15:50 15.68739 -60.07142 37002 ft 537 kts 51°
2026-04-25 15:50 15.73399 -60.01089 37009 ft 537 kts 51°
2026-04-25 15:51 15.76484 -59.97075 37010 ft 536 kts 51°
2026-04-25 15:51 15.82706 -59.88963 37009 ft 537 kts 51°
2026-04-25 15:52 15.87356 -59.82898 37007 ft 536 kts 51°
2026-04-25 15:52 15.92006 -59.76844 37002 ft 536 kts 51°
2026-04-25 15:53 15.96648 -59.70789 37004 ft 536 kts 51°
2026-04-25 15:53 16.01255 -59.64756 37009 ft 536 kts 52°
2026-04-25 15:54 16.05887 -59.58693 37013 ft 536 kts 51°
2026-04-25 15:54 16.10512 -59.52623 37007 ft 535 kts 51°
2026-04-25 15:55 16.15162 -59.46577 37008 ft 535 kts 52°
2026-04-25 15:55 16.19778 -59.40499 37009 ft 538 kts 51°
2026-04-25 15:56 16.24415 -59.34418 37012 ft 536 kts 51°
2026-04-25 15:56 16.29037 -59.28349 37009 ft 536 kts 51°
2026-04-25 15:57 16.33690 -59.22251 37008 ft 538 kts 51°
2026-04-25 15:57 16.38340 -59.16135 37011 ft 539 kts 51°
2026-04-25 15:58 16.42985 -59.10010 37017 ft 539 kts 51°
2026-04-25 15:58 16.47631 -59.03877 37007 ft 539 kts 51°
2026-04-25 15:59 16.52273 -58.97755 37008 ft 537 kts 51°
2026-04-25 15:59 16.56901 -58.91647 37009 ft 538 kts 51°
2026-04-25 16:00 16.59973 -58.87590 37017 ft 540 kts 51°
2026-04-25 16:00 16.66201 -58.79356 37014 ft 541 kts 51°
2026-04-25 16:01 16.70858 -58.73197 37019 ft 543 kts 51°
2026-04-25 16:01 16.75506 -58.67010 37010 ft 540 kts 51°
2026-04-25 16:02 16.80147 -58.60842 37008 ft 540 kts 51°
2026-04-25 16:02 16.84802 -58.54687 37019 ft 541 kts 51°
2026-04-25 16:03 16.89428 -58.48551 37016 ft 543 kts 51°
2026-04-25 16:03 16.94089 -58.42360 37017 ft 543 kts 51°
2026-04-25 16:04 16.98742 -58.36174 37015 ft 539 kts 52°
2026-04-25 16:04 17.03371 -58.30008 37021 ft 540 kts 51°
2026-04-25 16:05 17.08014 -58.23824 37014 ft 541 kts 51°
2026-04-25 16:06 17.14984 -58.14521 37016 ft 541 kts 51°
2026-04-25 16:06 17.19621 -58.08321 37011 ft 542 kts 51°
2026-04-25 16:07 17.24251 -58.02108 37022 ft 541 kts 51°
2026-04-25 16:07 17.28895 -57.95909 37023 ft 541 kts 51°
2026-04-25 16:08 17.33530 -57.89709 37022 ft 542 kts 51°
2026-04-25 16:08 17.38173 -57.83484 37022 ft 542 kts 51°
2026-04-25 16:09 17.42029 -57.78304 37021 ft 542 kts 51°
2026-04-25 16:09 17.46660 -57.72083 37024 ft 542 kts 51°
2026-04-25 16:10 17.51295 -57.65851 37033 ft 542 kts 51°
2026-04-25 16:10 17.55924 -57.59624 37027 ft 542 kts 51°
2026-04-25 16:11 17.60555 -57.53386 37025 ft 543 kts 51°
2026-04-25 16:11 17.65195 -57.47147 37030 ft 542 kts 51°
2026-04-25 16:12 17.69796 -57.40941 37025 ft 541 kts 51°
2026-04-25 16:12 17.74413 -57.34693 37037 ft 543 kts 51°
2026-04-25 16:13 17.79035 -57.28434 37028 ft 543 kts 51°
2026-04-25 16:13 17.83663 -57.22171 37029 ft 543 kts 51°
2026-04-25 16:14 17.88295 -57.15902 37033 ft 542 kts 51°
2026-04-25 16:14 17.92901 -57.09670 37032 ft 542 kts 51°
2026-04-25 16:15 17.97516 -57.03398 37044 ft 542 kts 51°
2026-04-25 16:15 18.01485 -56.96663 37030 ft 544 kts 63°
2026-04-25 16:16 18.04830 -56.89500 37033 ft 548 kts 65°
2026-04-25 16:16 18.08089 -56.82283 37026 ft 544 kts 65°
2026-04-25 16:17 18.11331 -56.75111 37030 ft 542 kts 65°
2026-04-25 16:17 18.14573 -56.67941 37033 ft 543 kts 65°
2026-04-25 16:18 18.17815 -56.60782 37031 ft 542 kts 65°
2026-04-25 16:18 18.21036 -56.53658 37026 ft 542 kts 65°
2026-04-25 16:19 18.24296 -56.46435 37036 ft 543 kts 65°
2026-04-25 16:19 18.27513 -56.39317 37034 ft 542 kts 64°
2026-04-25 16:20 18.32384 -56.28545 37027 ft 543 kts 65°
2026-04-25 16:21 18.37216 -56.17783 37033 ft 543 kts 65°
2026-04-25 16:21 18.40437 -56.10568 37035 ft 544 kts 65°
2026-04-25 16:22 18.43657 -56.03356 37032 ft 544 kts 65°
2026-04-25 16:22 18.46894 -55.96178 37035 ft 542 kts 64°
2026-04-25 16:23 18.50115 -55.88998 37030 ft 541 kts 65°
2026-04-25 16:23 18.53313 -55.81785 37035 ft 545 kts 65°
2026-04-25 16:24 18.56539 -55.74574 37032 ft 542 kts 65°
2026-04-25 16:24 18.59749 -55.67392 37035 ft 543 kts 65°
2026-04-25 16:25 18.62985 -55.60163 37035 ft 546 kts 65°
2026-04-25 16:25 18.66207 -55.52908 37034 ft 546 kts 65°
2026-04-25 16:26 18.69426 -55.45657 37037 ft 546 kts 65°
2026-04-25 16:26 18.72625 -55.38411 37041 ft 543 kts 65°
2026-04-25 16:27 18.75800 -55.31199 37034 ft 542 kts 65°
2026-04-25 16:27 18.79001 -55.23977 37033 ft 545 kts 65°
2026-04-25 16:28 18.82212 -55.16729 37034 ft 545 kts 65°
2026-04-25 16:28 18.85412 -55.09483 37037 ft 545 kts 65°
2026-04-25 16:29 18.88611 -55.02227 37037 ft 545 kts 65°
2026-04-25 16:29 18.91803 -54.94977 37039 ft 544 kts 65°
2026-04-25 16:30 18.94986 -54.87735 37040 ft 544 kts 65°
2026-04-25 16:30 18.98170 -54.80483 37039 ft 546 kts 65°
2026-04-25 16:31 19.01350 -54.73234 37042 ft 547 kts 65°
2026-04-25 16:31 19.04538 -54.65955 37042 ft 545 kts 65°
2026-04-25 16:32 19.07719 -54.58676 37042 ft 546 kts 65°
2026-04-25 16:32 19.10899 -54.51400 37043 ft 545 kts 65°
2026-04-25 16:33 19.14076 -54.44120 37036 ft 544 kts 65°
2026-04-25 16:33 19.17248 -54.36841 37039 ft 546 kts 65°
2026-04-25 16:34 19.20424 -54.29539 37043 ft 547 kts 65°
2026-04-25 16:34 19.23601 -54.22233 37040 ft 546 kts 65°
2026-04-25 16:35 19.26769 -54.14937 37047 ft 545 kts 65°
2026-04-25 16:35 19.29932 -54.07636 37045 ft 545 kts 65°
2026-04-25 16:36 19.33088 -54.00343 37050 ft 545 kts 65°
2026-04-25 16:36 19.36248 -53.93031 37046 ft 547 kts 65°
2026-04-25 16:37 19.39411 -53.85705 37043 ft 546 kts 65°
2026-04-25 16:37 19.42570 -53.78387 37046 ft 546 kts 65°
2026-04-25 16:38 19.45724 -53.71062 37048 ft 547 kts 65°
2026-04-25 16:38 19.48879 -53.63725 37049 ft 547 kts 65°
2026-04-25 16:39 19.52029 -53.56388 37049 ft 548 kts 65°
2026-04-25 16:39 19.55189 -53.49021 37044 ft 550 kts 65°
2026-04-25 16:40 19.58352 -53.41639 37048 ft 550 kts 65°
2026-04-25 16:40 19.61515 -53.34243 37048 ft 550 kts 65°
2026-04-25 16:41 19.64673 -53.26852 37048 ft 550 kts 65°
2026-04-25 16:41 19.69401 -53.15768 37051 ft 550 kts 65°
2026-04-25 16:42 19.72555 -53.08359 37050 ft 552 kts 65°
2026-04-25 16:42 19.75712 -53.00933 37050 ft 552 kts 65°
2026-04-25 16:43 19.78860 -52.93523 37051 ft 551 kts 65°
2026-04-25 16:43 19.81999 -52.86119 37050 ft 550 kts 65°
2026-04-25 16:44 19.85146 -52.78688 37063 ft 551 kts 65°
2026-04-25 16:44 19.88287 -52.71259 37050 ft 552 kts 65°
2026-04-25 16:45 19.91431 -52.63812 37050 ft 552 kts 65°
2026-04-25 16:45 19.94573 -52.56363 37051 ft 552 kts 65°
2026-04-25 16:46 19.97710 -52.48912 37049 ft 552 kts 65°
2026-04-25 16:46 19.99780 -52.43988 37051 ft 551 kts 65°
2026-04-25 16:47 20.03959 -52.34039 37051 ft 551 kts 65°
2026-04-25 16:47 20.07076 -52.26603 37047 ft 550 kts 65°
2026-04-25 16:48 20.10172 -52.19216 37051 ft 549 kts 65°
2026-04-25 16:48 20.13278 -52.11791 37049 ft 549 kts 65°
2026-04-25 16:49 20.16379 -52.04366 37046 ft 549 kts 65°
2026-04-25 16:49 20.19477 -51.96935 37049 ft 549 kts 65°
2026-04-25 16:50 20.22577 -51.89489 37050 ft 551 kts 65°
2026-04-25 16:50 20.25683 -51.82021 37051 ft 551 kts 65°
2026-04-25 16:51 20.28782 -51.74562 37050 ft 550 kts 65°
2026-04-25 16:51 20.30852 -51.69568 37053 ft 550 kts 65°
2026-04-25 16:52 20.34967 -51.59629 37056 ft 551 kts 65°
2026-04-25 16:52 20.38059 -51.52156 37055 ft 552 kts 65°
2026-04-25 16:53 20.42696 -51.40920 37053 ft 552 kts 65°
2026-04-25 16:54 20.45780 -51.33435 37056 ft 551 kts 65°
2026-04-25 16:54 20.48862 -51.25946 37053 ft 551 kts 65°
2026-04-25 16:55 20.51937 -51.18460 37059 ft 551 kts 65°
2026-04-25 16:55 20.55018 -51.10953 37053 ft 553 kts 65°
2026-04-25 16:56 20.58102 -51.03424 37059 ft 554 kts 65°
2026-04-25 16:56 20.61181 -50.95893 37059 ft 554 kts 65°
2026-04-25 16:57 20.63738 -50.89631 37056 ft 554 kts 65°
2026-04-25 16:57 20.66813 -50.82099 37056 ft 553 kts 65°
2026-04-25 16:58 20.70383 -50.73326 37053 ft 555 kts 65°
2026-04-25 16:58 20.72963 -50.66987 37058 ft 556 kts 65°
2026-04-25 16:59 20.76044 -50.59409 37058 ft 555 kts 65°
2026-04-25 16:59 20.79106 -50.51852 37059 ft 554 kts 65°
2026-04-25 17:00 20.82168 -50.44287 37056 ft 554 kts 65°
2026-04-25 17:00 20.85230 -50.36715 37061 ft 556 kts 65°
2026-04-25 17:01 20.88294 -50.29125 37061 ft 556 kts 65°
2026-04-25 17:01 20.91331 -50.21586 37061 ft 556 kts 65°
2026-04-25 17:02 20.94367 -50.14044 37061 ft 555 kts 65°
2026-04-25 17:02 20.97415 -50.06463 37062 ft 554 kts 65°
2026-04-25 17:03 21.00204 -49.98760 37068 ft 557 kts 73°
2026-04-25 17:03 21.02208 -49.90746 37063 ft 558 kts 75°
2026-04-25 17:04 21.04068 -49.82684 37063 ft 558 kts 76°
2026-04-25 17:04 21.05913 -49.74608 37052 ft 558 kts 76°
2026-04-25 17:05 21.07763 -49.66561 37057 ft 558 kts 75°
2026-04-25 17:05 21.10551 -49.54459 37058 ft 558 kts 75°
2026-04-25 17:06 21.12408 -49.46390 37060 ft 558 kts 75°
2026-04-25 17:06 21.14261 -49.38322 37059 ft 558 kts 75°
2026-04-25 17:07 21.16109 -49.30239 37058 ft 558 kts 75°
2026-04-25 17:07 21.17950 -49.22162 37058 ft 558 kts 75°
2026-04-25 17:08 21.19790 -49.14085 37060 ft 558 kts 75°
2026-04-25 17:08 21.21622 -49.06013 37054 ft 558 kts 75°
2026-04-25 17:09 21.23457 -48.97924 37058 ft 558 kts 75°
2026-04-25 17:09 21.25286 -48.89837 37062 ft 558 kts 75°
2026-04-25 17:10 21.27111 -48.81750 37061 ft 558 kts 75°
2026-04-25 17:10 21.28933 -48.73650 37066 ft 558 kts 75°
2026-04-25 17:11 21.30750 -48.65561 37066 ft 558 kts 75°
2026-04-25 17:11 21.32563 -48.57466 37063 ft 558 kts 75°
2026-04-25 17:12 21.34372 -48.49379 37067 ft 558 kts 75°
2026-04-25 17:12 21.36177 -48.41278 37060 ft 558 kts 75°
2026-04-25 17:13 21.37674 -48.34544 37066 ft 558 kts 75°
2026-04-25 17:13 21.39776 -48.25071 37066 ft 558 kts 75°
2026-04-25 17:14 21.41570 -48.16964 37065 ft 558 kts 75°
2026-04-25 17:14 21.43362 -48.08851 37064 ft 558 kts 76°
2026-04-25 17:15 21.45150 -48.00735 37058 ft 559 kts 76°
2026-04-25 17:15 21.46932 -47.92626 37064 ft 559 kts 76°
2026-04-25 17:16 21.48712 -47.84504 37069 ft 558 kts 76°
2026-04-25 17:16 21.50474 -47.76445 37067 ft 558 kts 76°
2026-04-25 17:17 21.52242 -47.68331 37084 ft 558 kts 75°
2026-04-25 17:17 21.54009 -47.60213 37071 ft 558 kts 75°
2026-04-25 17:18 21.55771 -47.52098 37069 ft 558 kts 76°
2026-04-25 17:18 21.57529 -47.43977 37068 ft 558 kts 76°
2026-04-25 17:19 21.59285 -47.35846 37065 ft 558 kts 76°
2026-04-25 17:19 21.61034 -47.27715 37066 ft 558 kts 76°
2026-04-25 17:20 21.62783 -47.19586 37072 ft 558 kts 75°
2026-04-25 17:20 21.64524 -47.11463 37068 ft 557 kts 76°
2026-04-25 17:21 21.66259 -47.03339 37067 ft 558 kts 76°
2026-04-25 17:21 21.67993 -46.95207 37067 ft 558 kts 76°
2026-04-25 17:22 21.69431 -46.88457 37069 ft 558 kts 76°
2026-04-25 17:22 21.71451 -46.78945 37067 ft 558 kts 76°
2026-04-25 17:23 21.73173 -46.70815 37069 ft 557 kts 76°
2026-04-25 17:23 21.74885 -46.62700 37073 ft 557 kts 76°
2026-04-25 17:24 21.76596 -46.54577 37072 ft 557 kts 76°
2026-04-25 17:24 21.78303 -46.46451 37073 ft 557 kts 76°
2026-04-25 17:25 21.80005 -46.38324 37077 ft 557 kts 76°
2026-04-25 17:25 21.81700 -46.30196 37081 ft 557 kts 76°
2026-04-25 17:26 21.83383 -46.22112 37076 ft 559 kts 76°
2026-04-25 17:26 21.85090 -46.13954 37075 ft 558 kts 76°
2026-04-25 17:27 21.86791 -46.05756 37075 ft 557 kts 76°
2026-04-25 17:27 21.87904 -46.00365 37072 ft 557 kts 76°
2026-04-25 17:28 21.90141 -45.89517 37073 ft 558 kts 76°
2026-04-25 17:28 21.91816 -45.81362 37076 ft 558 kts 76°
2026-04-25 17:29 21.93489 -45.73198 37075 ft 558 kts 76°
2026-04-25 17:29 21.95162 -45.65039 37078 ft 558 kts 76°
2026-04-25 17:30 21.96829 -45.56876 37078 ft 558 kts 76°
2026-04-25 17:30 21.98485 -45.48724 37082 ft 557 kts 76°
2026-04-25 17:31 22.00141 -45.40580 37083 ft 557 kts 76°
2026-04-25 17:31 22.01794 -45.32405 37080 ft 558 kts 76°
2026-04-25 17:32 22.03442 -45.24242 37081 ft 558 kts 76°
2026-04-25 17:32 22.05090 -45.16056 37079 ft 558 kts 76°
2026-04-25 17:33 22.06731 -45.07883 37081 ft 558 kts 76°
2026-04-25 17:33 22.08369 -44.99712 37087 ft 558 kts 76°
2026-04-25 17:34 22.10006 -44.91526 37084 ft 559 kts 76°
2026-04-25 17:34 22.11636 -44.83340 37083 ft 558 kts 76°
2026-04-25 17:35 22.13260 -44.75160 37083 ft 558 kts 76°
2026-04-25 17:35 22.14880 -44.66975 37084 ft 558 kts 76°
2026-04-25 17:36 22.16499 -44.58788 37085 ft 558 kts 76°
2026-04-25 17:36 22.18113 -44.50598 37084 ft 558 kts 76°
2026-04-25 17:37 22.19722 -44.42401 37083 ft 558 kts 76°
2026-04-25 17:37 22.21329 -44.34197 37085 ft 559 kts 76°
2026-04-25 17:38 22.22400 -44.28713 37082 ft 559 kts 76°
2026-04-25 17:38 22.24529 -44.17793 37074 ft 559 kts 76°
2026-04-25 17:39 22.26126 -44.09582 37088 ft 559 kts 76°
2026-04-25 17:39 22.27717 -44.01367 37078 ft 559 kts 76°
2026-04-25 17:40 22.29308 -43.93141 37086 ft 560 kts 76°
2026-04-25 17:40 22.30896 -43.84904 37092 ft 560 kts 76°
2026-04-25 17:41 22.32478 -43.76667 37085 ft 560 kts 76°
2026-04-25 17:41 22.34046 -43.68480 37094 ft 560 kts 76°
2026-04-25 17:42 22.35631 -43.60186 37086 ft 561 kts 76°
2026-04-25 17:42 22.37193 -43.51987 37085 ft 561 kts 76°
2026-04-25 17:43 22.38760 -43.43734 37087 ft 561 kts 76°
2026-04-25 17:43 22.40324 -43.35477 37093 ft 561 kts 76°
2026-04-25 17:44 22.41884 -43.27216 37078 ft 561 kts 76°
2026-04-25 17:44 22.43437 -43.18965 37095 ft 560 kts 76°
2026-04-25 17:45 22.44474 -43.13448 37081 ft 559 kts 76°
2026-04-25 17:45 22.46528 -43.02475 37105 ft 559 kts 76°
2026-04-25 17:46 22.48065 -42.94234 37089 ft 560 kts 76°
2026-04-25 17:46 22.49343 -42.87368 37088 ft 560 kts 76°
2026-04-25 17:47 22.50887 -42.79057 37089 ft 560 kts 76°
2026-04-25 17:47 22.52404 -42.70859 37086 ft 560 kts 76°
2026-04-25 17:48 22.54688 -42.58465 37091 ft 560 kts 76°
2026-04-25 17:49 22.56207 -42.50198 37088 ft 560 kts 76°
2026-04-25 17:49 22.57720 -42.41926 37089 ft 561 kts 76°
2026-04-25 17:50 22.59230 -42.33646 37091 ft 561 kts 76°
2026-04-25 17:50 22.60739 -42.25363 37092 ft 561 kts 76°
2026-04-25 17:51 22.62243 -42.17080 37091 ft 561 kts 76°
2026-04-25 17:51 22.63743 -42.08800 37097 ft 561 kts 76°
2026-04-25 17:52 22.65236 -42.00516 37094 ft 561 kts 76°
2026-04-25 17:52 22.66726 -41.92232 37100 ft 560 kts 76°
2026-04-25 17:53 22.68211 -41.83956 37097 ft 560 kts 76°
2026-04-25 17:53 22.69693 -41.75664 37104 ft 561 kts 76°
2026-04-25 17:54 22.71169 -41.67372 37099 ft 561 kts 76°
2026-04-25 17:54 22.72643 -41.59075 37097 ft 561 kts 76°
2026-04-25 17:55 22.74110 -41.50776 37097 ft 561 kts 76°
2026-04-25 17:55 22.75574 -41.42483 37096 ft 560 kts 76°
2026-04-25 17:56 22.77034 -41.34200 37111 ft 560 kts 76°
2026-04-25 17:56 22.78491 -41.25903 37100 ft 561 kts 76°
2026-04-25 17:57 22.79941 -41.17605 37095 ft 560 kts 76°
2026-04-25 17:57 22.81384 -41.09304 37099 ft 561 kts 76°
2026-04-25 17:58 22.82827 -41.00998 37102 ft 561 kts 76°
2026-04-25 17:58 22.84264 -40.92703 37102 ft 561 kts 76°
2026-04-25 17:59 22.85691 -40.84437 37100 ft 561 kts 76°
2026-04-25 17:59 22.87121 -40.76125 37099 ft 561 kts 76°
2026-04-25 18:00 22.88550 -40.67798 37106 ft 561 kts 76°
2026-04-25 18:00 22.89974 -40.59470 37102 ft 562 kts 76°
2026-04-25 18:01 22.91395 -40.51130 37100 ft 562 kts 76°
2026-04-25 18:01 22.92811 -40.42794 37103 ft 562 kts 76°
2026-04-25 18:02 22.94224 -40.34449 37098 ft 563 kts 76°
2026-04-25 18:02 22.95634 -40.26088 37098 ft 563 kts 76°
2026-04-25 18:03 22.97037 -40.17741 37102 ft 563 kts 76°
2026-04-25 18:03 22.98439 -40.09376 37102 ft 563 kts 76°
2026-04-25 18:04 22.99463 -40.00934 37108 ft 568 kts 89°
2026-04-25 18:04 22.99091 -39.96664 37106 ft 570 kts 101°
2026-04-25 18:04 22.98288 -39.92454 37091 ft 570 kts 103°
2026-04-25 18:05 22.96360 -39.84114 37104 ft 570 kts 105°
2026-04-25 18:05 22.94316 -39.75808 37103 ft 570 kts 105°
2026-04-25 18:06 22.92292 -39.67476 37101 ft 571 kts 104°
2026-04-25 18:06 22.90298 -39.59141 37103 ft 571 kts 104°
2026-04-25 18:07 22.88307 -39.50795 37102 ft 572 kts 104°
2026-04-25 18:07 22.86311 -39.42450 37101 ft 571 kts 104°
2026-04-25 18:08 22.84312 -39.34129 37107 ft 570 kts 104°
2026-04-25 18:08 22.82308 -39.25807 37104 ft 571 kts 104°
2026-04-25 18:09 22.80297 -39.17482 37100 ft 571 kts 104°
2026-04-25 18:09 22.78286 -39.09175 37104 ft 564 kts 105°
2026-04-25 18:10 22.76337 -39.01134 37109 ft 543 kts 104°
2026-04-25 18:10 22.74417 -38.93238 37102 ft 542 kts 105°
2026-04-25 18:11 22.72490 -38.85340 37101 ft 542 kts 105°
2026-04-25 18:11 22.70562 -38.77451 37103 ft 542 kts 105°
2026-04-25 18:12 22.68631 -38.69559 37099 ft 542 kts 105°
2026-04-25 18:12 22.66708 -38.61720 37104 ft 543 kts 105°
2026-04-25 18:13 22.64765 -38.53819 37102 ft 543 kts 105°
2026-04-25 18:13 22.62821 -38.45926 37098 ft 542 kts 105°
2026-04-25 18:14 22.59903 -38.34117 37103 ft 541 kts 105°
2026-04-25 18:14 22.57952 -38.26247 37105 ft 542 kts 105°
2026-04-25 18:15 22.55997 -38.18373 37110 ft 542 kts 105°
2026-04-25 18:15 22.54036 -38.10497 37103 ft 543 kts 105°
2026-04-25 18:16 22.52069 -38.02613 37102 ft 543 kts 105°
2026-04-25 18:17 22.49107 -37.90785 37100 ft 543 kts 105°
2026-04-25 18:17 22.47127 -37.82898 37103 ft 544 kts 105°
2026-04-25 18:18 22.45145 -37.75015 37102 ft 544 kts 105°
2026-04-25 18:18 22.43153 -37.67113 37104 ft 544 kts 105°
2026-04-25 18:19 22.41161 -37.59214 37103 ft 545 kts 105°
2026-04-25 18:19 22.39161 -37.51319 37099 ft 544 kts 105°
2026-04-25 18:20 22.37162 -37.43439 37105 ft 543 kts 105°
2026-04-25 18:20 22.35159 -37.35567 37102 ft 544 kts 105°
2026-04-25 18:21 22.33149 -37.27678 37101 ft 544 kts 105°
2026-04-25 18:21 22.31135 -37.19800 37108 ft 545 kts 105°
2026-04-25 18:22 22.29113 -37.11902 37103 ft 546 kts 105°
2026-04-25 18:22 22.27088 -37.04013 37089 ft 546 kts 105°
2026-04-25 18:23 22.25064 -36.96134 37106 ft 544 kts 105°
2026-04-25 18:23 22.23038 -36.88264 37103 ft 544 kts 105°
2026-04-25 18:24 22.21017 -36.80443 37102 ft 544 kts 105°
2026-04-25 18:24 22.18981 -36.72580 37106 ft 544 kts 105°
2026-04-25 18:25 22.16939 -36.64703 37102 ft 546 kts 105°
2026-04-25 18:25 22.14891 -36.56815 37102 ft 546 kts 105°
2026-04-25 18:26 22.12840 -36.48938 37095 ft 544 kts 105°
2026-04-25 18:26 22.10793 -36.41096 37105 ft 543 kts 105°
2026-04-25 18:27 22.08746 -36.33265 37101 ft 543 kts 105°
2026-04-25 18:27 22.06693 -36.25432 37111 ft 543 kts 105°
2026-04-25 18:28 22.04633 -36.17581 37102 ft 544 kts 105°
2026-04-25 18:28 22.02566 -36.09729 37102 ft 545 kts 105°
2026-04-25 18:29 21.99446 -35.97967 37102 ft 543 kts 107°
2026-04-25 18:30 21.94053 -35.82806 37102 ft 542 kts 112°
2026-04-25 18:30 21.91297 -35.75243 37116 ft 543 kts 111°
2026-04-25 18:31 21.88597 -35.67641 37106 ft 544 kts 111°
2026-04-25 18:31 21.85911 -35.60030 37101 ft 544 kts 111°
2026-04-25 18:32 21.83224 -35.52426 37096 ft 542 kts 111°
2026-04-25 18:32 21.80994 -35.46133 37108 ft 542 kts 111°
2026-04-25 18:33 21.78301 -35.38551 37102 ft 543 kts 111°
2026-04-25 18:33 21.75600 -35.30963 37102 ft 543 kts 111°
2026-04-25 18:34 21.72899 -35.23383 37104 ft 543 kts 111°
2026-04-25 18:34 21.70189 -35.15791 37099 ft 545 kts 111°
2026-04-25 18:35 21.67474 -35.08200 37102 ft 543 kts 111°
2026-04-25 18:35 21.64769 -35.00645 37103 ft 541 kts 111°
2026-04-25 18:36 21.62060 -34.93095 37099 ft 542 kts 111°
2026-04-25 18:36 21.59343 -34.85531 37103 ft 543 kts 111°
2026-04-25 18:37 21.56618 -34.77963 37097 ft 543 kts 111°
2026-04-25 18:37 21.53891 -34.70399 37104 ft 543 kts 111°
2026-04-25 18:38 21.51163 -34.62841 37102 ft 542 kts 112°
2026-04-25 18:38 21.48436 -34.55294 37099 ft 541 kts 112°
2026-04-25 18:39 21.45705 -34.47762 37094 ft 541 kts 112°
2026-04-25 18:39 21.42972 -34.40225 37101 ft 543 kts 112°
2026-04-25 18:40 21.40230 -34.32678 37096 ft 543 kts 112°
2026-04-25 18:40 21.37482 -34.25126 37105 ft 543 kts 112°
2026-04-25 18:41 21.34733 -34.17583 37093 ft 542 kts 112°
2026-04-25 18:41 21.31989 -34.10069 37093 ft 541 kts 112°
2026-04-25 18:42 21.29705 -34.03824 37099 ft 542 kts 112°
2026-04-25 18:42 21.26487 -33.95039 37094 ft 541 kts 112°
2026-04-25 18:43 21.23753 -33.87586 37087 ft 541 kts 112°
2026-04-25 18:43 21.20995 -33.80080 37106 ft 541 kts 112°
2026-04-25 18:44 21.18235 -33.72581 37085 ft 540 kts 112°
2026-04-25 18:44 21.15481 -33.65107 37091 ft 539 kts 112°
2026-04-25 18:45 21.12731 -33.57655 37091 ft 539 kts 112°
2026-04-25 18:45 21.09964 -33.50174 37092 ft 539 kts 112°
2026-04-25 18:46 21.07195 -33.42705 37086 ft 539 kts 112°
2026-04-25 18:46 21.04425 -33.35235 37088 ft 540 kts 112°
2026-04-25 18:47 21.01649 -33.27766 37075 ft 540 kts 112°
2026-04-25 18:47 20.98870 -33.20295 37090 ft 540 kts 112°
2026-04-25 18:48 20.96088 -33.12829 37085 ft 541 kts 112°
2026-04-25 18:48 20.93295 -33.05345 37087 ft 542 kts 112°
2026-04-25 18:49 20.90495 -32.97859 37083 ft 542 kts 112°
2026-04-25 18:49 20.87696 -32.90379 37083 ft 542 kts 112°
2026-04-25 18:50 20.84892 -32.82900 37067 ft 542 kts 112°
2026-04-25 18:50 20.82086 -32.75429 37082 ft 541 kts 112°
2026-04-25 18:51 20.79756 -32.69233 37081 ft 539 kts 112°
2026-04-25 18:51 20.76480 -32.60537 37076 ft 540 kts 112°
2026-04-25 18:52 20.73670 -32.53090 37086 ft 541 kts 112°
2026-04-25 18:52 20.70859 -32.45643 37086 ft 541 kts 112°
2026-04-25 18:53 20.68059 -32.38244 37070 ft 541 kts 112°
2026-04-25 18:53 20.65241 -32.30802 37070 ft 540 kts 112°
2026-04-25 18:54 20.61013 -32.19668 37073 ft 539 kts 113°
2026-04-25 18:55 20.58193 -32.12256 37075 ft 539 kts 113°
2026-04-25 18:55 20.55365 -32.04839 37082 ft 539 kts 113°
2026-04-25 18:56 20.52535 -31.97417 37082 ft 540 kts 113°
2026-04-25 18:56 20.49701 -31.89994 37066 ft 540 kts 113°
2026-04-25 18:57 20.46865 -31.82582 37068 ft 539 kts 113°
2026-04-25 18:57 20.44038 -31.75206 37073 ft 537 kts 113°
2026-04-25 18:58 20.41145 -31.67860 37068 ft 537 kts 115°
2026-04-25 18:58 20.36329 -31.57071 37070 ft 537 kts 117°
2026-04-25 18:59 20.29914 -31.42674 37067 ft 539 kts 116°
2026-04-25 19:00 20.25175 -31.31908 37067 ft 537 kts 116°
2026-04-25 19:01 20.20412 -31.21120 37064 ft 536 kts 116°
2026-04-25 19:01 20.17236 -31.13944 37060 ft 536 kts 116°
2026-04-25 19:02 20.12466 -31.03181 37061 ft 536 kts 116°
2026-04-25 19:03 20.08744 -30.94800 37052 ft 536 kts 116°
2026-04-25 19:03 20.04507 -30.85277 37061 ft 534 kts 116°
2026-04-25 19:04 19.99731 -30.74562 37061 ft 535 kts 116°
2026-04-25 19:05 19.93357 -30.60278 37058 ft 535 kts 116°
2026-04-25 19:06 19.90162 -30.53140 37059 ft 535 kts 116°
2026-04-25 19:06 19.85375 -30.42463 37059 ft 533 kts 116°
2026-04-25 19:07 19.80594 -30.31815 37062 ft 532 kts 116°
2026-04-25 19:08 19.75802 -30.21163 37057 ft 533 kts 116°
2026-04-25 19:09 19.70483 -30.09365 37061 ft 533 kts 116°
2026-04-25 19:10 19.64618 -29.96387 37052 ft 532 kts 116°
2026-04-25 19:10 19.61419 -29.89319 37053 ft 531 kts 116°
2026-04-25 19:11 19.58221 -29.82261 37057 ft 531 kts 116°
2026-04-25 19:11 19.55016 -29.75201 37051 ft 532 kts 117°
2026-04-25 19:12 19.51801 -29.68127 37052 ft 532 kts 117°
2026-04-25 19:12 19.48587 -29.61061 37054 ft 532 kts 117°
2026-04-25 19:13 19.45373 -29.54002 37051 ft 530 kts 117°
2026-04-25 19:13 19.42171 -29.46977 37048 ft 529 kts 117°
2026-04-25 19:14 19.38967 -29.39961 37048 ft 529 kts 117°
2026-04-25 19:14 19.35760 -29.32943 37048 ft 529 kts 117°
2026-04-25 19:15 19.32544 -29.25919 37045 ft 530 kts 117°
2026-04-25 19:15 19.29325 -29.18898 37045 ft 531 kts 117°
2026-04-25 19:16 19.26098 -29.11867 37049 ft 531 kts 117°
2026-04-25 19:16 19.22875 -29.04852 37044 ft 529 kts 117°
2026-04-25 19:17 19.19666 -28.97874 37042 ft 527 kts 117°
2026-04-25 19:17 19.16475 -28.90946 37043 ft 528 kts 117°
2026-04-25 19:18 19.13236 -28.83924 37039 ft 529 kts 117°
2026-04-25 19:18 19.10031 -28.76982 37039 ft 528 kts 117°
2026-04-25 19:19 19.06803 -28.70002 37039 ft 528 kts 117°
2026-04-25 19:19 19.03578 -28.63030 37038 ft 529 kts 117°
2026-04-25 19:20 19.00346 -28.56052 37035 ft 529 kts 117°
2026-04-25 19:20 18.97106 -28.49067 37037 ft 529 kts 117°
2026-04-25 19:21 18.93862 -28.42083 37038 ft 529 kts 117°
2026-04-25 19:21 18.88993 -28.31623 37034 ft 529 kts 117°
2026-04-25 19:22 18.86294 -28.25824 37032 ft 529 kts 117°
2026-04-25 19:23 18.81421 -28.15370 37027 ft 529 kts 117°
2026-04-25 19:23 18.76555 -28.04955 37034 ft 526 kts 117°
2026-04-25 19:24 18.73323 -27.98047 37034 ft 525 kts 117°
2026-04-25 19:25 18.66842 -27.84225 37028 ft 526 kts 117°
2026-04-25 19:25 18.63597 -27.77316 37033 ft 526 kts 117°
2026-04-25 19:26 18.60347 -27.70405 37027 ft 526 kts 117°
2026-04-25 19:26 18.57099 -27.63502 37027 ft 525 kts 117°
2026-04-25 19:27 18.54387 -27.57744 37029 ft 523 kts 117°
2026-04-25 19:27 18.50618 -27.49762 37029 ft 523 kts 117°
2026-04-25 19:28 18.47379 -27.42897 37027 ft 524 kts 117°
2026-04-25 19:28 18.44136 -27.36032 37023 ft 524 kts 117°
2026-04-25 19:29 18.40883 -27.29162 37022 ft 524 kts 118°
2026-04-25 19:29 18.37631 -27.22302 37024 ft 524 kts 118°
2026-04-25 19:30 18.34378 -27.15445 37023 ft 522 kts 118°
2026-04-25 19:30 18.31135 -27.08619 37023 ft 521 kts 118°
2026-04-25 19:31 18.27890 -27.01796 37021 ft 521 kts 118°
2026-04-25 19:31 18.24648 -26.94984 37018 ft 521 kts 118°
2026-04-25 19:32 18.21400 -26.88165 37017 ft 521 kts 118°
2026-04-25 19:32 18.18698 -26.82501 37019 ft 522 kts 118°
2026-04-25 19:33 18.14892 -26.74530 37017 ft 522 kts 118°
2026-04-25 19:33 18.11631 -26.67713 37010 ft 521 kts 118°
2026-04-25 19:34 18.08379 -26.60918 37019 ft 520 kts 118°
2026-04-25 19:34 18.05126 -26.54131 37017 ft 520 kts 118°
2026-04-25 19:35 18.01872 -26.47348 37018 ft 520 kts 118°
2026-04-25 19:35 17.98616 -26.40572 37013 ft 520 kts 118°
2026-04-25 19:36 17.95377 -26.33835 37013 ft 520 kts 118°
2026-04-25 19:36 17.92094 -26.27016 37011 ft 520 kts 118°
2026-04-25 19:37 17.88848 -26.20277 37003 ft 520 kts 118°
2026-04-25 19:37 17.85590 -26.13520 37010 ft 518 kts 118°
2026-04-25 19:38 17.82334 -26.06775 37010 ft 517 kts 118°
2026-04-25 19:38 17.79075 -26.00049 37006 ft 517 kts 119°
2026-04-25 19:39 17.75647 -25.93414 37009 ft 517 kts 121°
2026-04-25 19:39 17.72157 -25.86823 37011 ft 517 kts 121°
2026-04-25 19:40 17.68686 -25.80212 37004 ft 517 kts 120°
2026-04-25 19:40 17.65231 -25.73597 36991 ft 518 kts 120°
2026-04-25 19:41 17.61782 -25.66986 37007 ft 515 kts 120°
2026-04-25 19:41 17.59483 -25.62582 37004 ft 515 kts 120°
2026-04-25 19:42 17.54906 -25.53833 37001 ft 515 kts 121°
2026-04-25 19:42 17.51462 -25.47257 37002 ft 515 kts 121°
2026-04-25 19:43 17.48015 -25.40679 37001 ft 515 kts 121°
2026-04-25 19:43 17.44567 -25.34110 37001 ft 515 kts 121°
2026-04-25 19:44 17.41115 -25.27539 37001 ft 515 kts 121°
2026-04-25 19:44 17.37668 -25.20982 36998 ft 513 kts 120°
2026-04-25 19:45 17.34227 -25.14444 36999 ft 512 kts 121°
2026-04-25 19:45 17.30788 -25.07916 36999 ft 512 kts 121°
2026-04-25 19:46 17.27352 -25.01394 36998 ft 512 kts 121°
2026-04-25 19:46 17.23923 -24.94900 36996 ft 513 kts 121°
2026-04-25 19:47 17.20475 -24.88374 36991 ft 513 kts 121°
2026-04-25 19:47 17.16999 -24.81803 36991 ft 513 kts 121°
2026-04-25 19:48 17.13569 -24.75323 36990 ft 513 kts 121°
2026-04-25 19:48 17.10117 -24.68810 36980 ft 512 kts 121°
2026-04-25 19:49 17.07809 -24.64459 36983 ft 512 kts 121°
2026-04-25 19:49 17.03203 -24.55786 36988 ft 513 kts 121°
2026-04-25 19:50 16.98013 -24.46021 36960 ft 513 kts 121°
2026-04-25 19:51 16.94551 -24.39519 36961 ft 512 kts 121°
2026-04-25 19:51 16.91087 -24.33013 36970 ft 512 kts 121°
2026-04-25 19:52 16.87627 -24.26518 36960 ft 512 kts 121°
2026-04-25 19:52 16.84165 -24.20032 36969 ft 510 kts 121°
2026-04-25 19:53 16.80712 -24.13570 36969 ft 510 kts 121°
2026-04-25 19:53 16.77255 -24.07103 36974 ft 510 kts 121°
2026-04-25 19:54 16.73797 -24.00641 36975 ft 510 kts 121°
2026-04-25 19:54 16.70335 -23.94179 36977 ft 510 kts 121°
2026-04-25 19:55 16.66873 -23.87726 36971 ft 510 kts 121°
2026-04-25 19:55 16.63414 -23.81283 36971 ft 510 kts 121°
2026-04-25 19:56 16.59939 -23.74816 36971 ft 510 kts 121°
2026-04-25 19:56 16.56474 -23.68370 36966 ft 510 kts 121°
2026-04-25 19:57 16.53006 -23.61929 36960 ft 510 kts 121°
2026-04-25 19:57 16.49536 -23.55490 36960 ft 510 kts 121°
2026-04-25 19:58 16.46062 -23.49049 36952 ft 510 kts 121°
2026-04-25 19:58 16.42588 -23.42610 36955 ft 510 kts 122°
2026-04-25 19:59 16.39111 -23.36175 36949 ft 509 kts 122°
2026-04-25 19:59 16.35639 -23.29755 36951 ft 509 kts 122°
2026-04-25 20:00 16.32174 -23.23351 36963 ft 507 kts 122°
2026-04-25 20:00 16.28735 -23.17000 36952 ft 507 kts 122°
2026-04-25 20:01 16.23536 -23.07413 36955 ft 506 kts 122°
2026-04-25 20:01 16.20070 -23.01032 36954 ft 507 kts 122°
2026-04-25 20:02 16.16597 -22.94648 36939 ft 507 kts 122°
2026-04-25 20:02 16.13125 -22.88269 36938 ft 507 kts 122°
2026-04-25 20:03 16.09694 -22.81857 36938 ft 507 kts 121°
2026-04-25 20:03 16.06310 -22.75445 36946 ft 505 kts 121°
2026-04-25 20:04 16.02925 -22.69053 36938 ft 505 kts 121°
2026-04-25 20:04 15.99529 -22.62663 36958 ft 505 kts 121°
2026-04-25 20:05 15.96131 -22.56280 36959 ft 505 kts 121°
2026-04-25 20:05 15.92732 -22.49902 36948 ft 505 kts 121°
2026-04-25 20:06 15.89325 -22.43517 36957 ft 505 kts 121°
2026-04-25 20:06 15.85920 -22.37138 36947 ft 505 kts 121°
2026-04-25 20:07 15.82510 -22.30757 36957 ft 505 kts 121°
2026-04-25 20:07 15.79105 -22.24392 36956 ft 504 kts 121°
2026-04-25 20:08 15.76273 -22.19101 36944 ft 504 kts 121°
2026-04-25 20:08 15.72866 -22.12744 36955 ft 504 kts 121°
2026-04-25 20:09 15.69459 -22.06389 36944 ft 504 kts 121°
2026-04-25 20:09 15.66049 -22.00038 36949 ft 504 kts 121°
2026-04-25 20:10 15.62639 -21.93693 36950 ft 504 kts 121°
2026-04-25 20:10 15.59224 -21.87342 36950 ft 504 kts 121°
2026-04-25 20:11 15.55805 -21.80988 36940 ft 504 kts 121°
2026-04-25 20:11 15.52389 -21.74649 36940 ft 503 kts 121°
2026-04-25 20:12 15.48978 -21.68318 36939 ft 503 kts 121°
2026-04-25 20:12 15.46117 -21.63013 36938 ft 503 kts 121°
2026-04-25 20:13 15.42149 -21.55662 36947 ft 503 kts 121°
2026-04-25 20:13 15.38732 -21.49340 36941 ft 503 kts 121°
2026-04-25 20:14 15.35313 -21.43018 36944 ft 503 kts 121°
2026-04-25 20:14 15.31891 -21.36695 36937 ft 503 kts 121°
2026-04-25 20:15 15.28466 -21.30374 36930 ft 503 kts 121°
2026-04-25 20:15 15.25044 -21.24063 36937 ft 501 kts 121°
2026-04-25 20:16 15.21631 -21.17774 36941 ft 501 kts 121°
2026-04-25 20:16 15.18230 -21.11515 36935 ft 501 kts 121°
2026-04-25 20:17 15.14793 -21.05196 36935 ft 501 kts 121°
2026-04-25 20:17 15.11400 -20.98959 36933 ft 501 kts 121°
2026-04-25 20:18 15.07975 -20.92673 36931 ft 501 kts 121°
2026-04-25 20:18 15.04554 -20.86391 36932 ft 500 kts 121°
2026-04-25 20:19 15.02866 -20.83292 36928 ft 489 kts 121°
2026-04-25 20:19 15.01215 -20.80260 36938 ft 479 kts 122°
2026-04-25 20:19 14.97951 -20.74282 36926 ft 476 kts 121°
2026-04-25 20:20 14.94698 -20.68330 36932 ft 475 kts 121°
2026-04-25 20:20 14.91443 -20.62381 36930 ft 475 kts 121°
2026-04-25 20:21 14.88188 -20.56432 36922 ft 475 kts 121°
2026-04-25 20:21 14.84933 -20.50487 36926 ft 475 kts 121°
2026-04-25 20:22 14.82229 -20.45551 36927 ft 475 kts 121°
2026-04-25 20:22 14.78423 -20.38610 36925 ft 475 kts 121°
2026-04-25 20:23 14.75190 -20.32720 36927 ft 475 kts 121°
2026-04-25 20:23 14.71932 -20.26787 36924 ft 475 kts 122°
2026-04-25 20:24 14.68841 -20.20770 36923 ft 475 kts 111°
2026-04-25 20:24 14.65831 -20.14800 36921 ft 466 kts 135°
2026-04-25 20:25 14.63394 -20.12651 36934 ft 458 kts 152°
2026-04-25 20:25 14.60531 -20.11315 36924 ft 449 kts 168°
2026-04-25 20:25 14.54445 -20.09878 36915 ft 450 kts 173°
2026-04-25 20:26 14.48291 -20.08605 36916 ft 451 kts 173°
2026-04-25 20:26 14.42141 -20.07337 36917 ft 451 kts 173°
2026-04-25 20:27 14.35966 -20.06878 36918 ft 441 kts 190°
2026-04-25 20:27 14.29899 -20.07733 36913 ft 441 kts 190°
2026-04-25 20:28 14.26813 -20.07676 36918 ft 449 kts 173°
2026-04-25 20:28 14.23829 -20.06698 36917 ft 455 kts 156°
2026-04-25 20:28 14.21202 -20.04863 36918 ft 461 kts 139°
2026-04-25 20:28 14.19155 -20.02314 36912 ft 466 kts 122°
2026-04-25 20:29 14.17870 -19.99253 36914 ft 468 kts 104°
2026-04-25 20:29 14.17459 -19.95932 36913 ft 469 kts 87°
2026-04-25 20:29 14.17956 -19.92630 36915 ft 467 kts 70°
2026-04-25 20:29 14.19314 -19.89623 36913 ft 462 kts 53°
2026-04-25 20:30 14.21411 -19.87159 36912 ft 455 kts 36°
2026-04-25 20:30 14.24022 -19.85359 36917 ft 451 kts 25°
2026-04-25 20:30 14.29612 -19.82397 36912 ft 453 kts 23°
2026-04-25 20:31 14.35264 -19.79491 36914 ft 454 kts 23°
2026-04-25 20:31 14.40872 -19.76605 36911 ft 453 kts 23°
2026-04-25 20:32 14.46507 -19.73684 36919 ft 453 kts 23°
2026-04-25 20:32 14.52141 -19.70743 36913 ft 454 kts 23°
2026-04-25 20:33 14.57779 -19.67795 36918 ft 454 kts 23°
2026-04-25 20:33 14.62487 -19.65332 36912 ft 461 kts 23°
2026-04-25 20:34 14.69262 -19.61795 36913 ft 473 kts 23°
2026-04-25 20:34 14.75198 -19.58701 36918 ft 483 kts 23°
2026-04-25 20:35 14.81258 -19.55536 36922 ft 493 kts 23°
2026-04-25 20:35 14.87392 -19.52301 36913 ft 494 kts 23°
2026-04-25 20:36 14.93507 -19.49073 36912 ft 493 kts 22°
2026-04-25 20:36 14.99797 -19.46358 36917 ft 487 kts 14°
2026-04-25 20:37 15.06240 -19.44225 36922 ft 486 kts 13°
2026-04-25 20:37 15.12691 -19.42131 36921 ft 486 kts 13°
2026-04-25 20:38 15.19138 -19.39995 36920 ft 487 kts 13°
2026-04-25 20:38 15.22253 -19.38558 36917 ft 496 kts 28°
2026-04-25 20:38 15.24957 -19.36313 36921 ft 503 kts 44°
2026-04-25 20:39 15.27037 -19.33384 36921 ft 509 kts 59°
2026-04-25 20:39 15.28338 -19.29968 36914 ft 514 kts 75°
2026-04-25 20:39 15.28764 -19.26297 36915 ft 516 kts 91°
2026-04-25 20:39 15.28546 -19.23852 36920 ft 516 kts 102°
2026-04-25 20:40 15.26926 -19.19216 36914 ft 511 kts 123°
2026-04-25 20:40 15.25594 -19.17218 36913 ft 508 kts 133°
2026-04-25 20:40 15.22058 -19.14081 36913 ft 498 kts 154°
2026-04-25 20:40 15.19002 -19.12549 36919 ft 494 kts 162°
2026-04-25 20:41 15.12597 -19.09956 36905 ft 495 kts 163°
2026-04-25 20:41 15.06148 -19.07457 36915 ft 495 kts 163°
2026-04-25 20:42 14.99702 -19.04964 36915 ft 494 kts 163°
2026-04-25 20:42 14.93265 -19.02475 36916 ft 494 kts 163°
2026-04-25 20:43 14.86822 -18.99984 36906 ft 494 kts 163°
2026-04-25 20:43 14.80378 -18.97501 36901 ft 494 kts 163°
2026-04-25 20:44 14.73928 -18.95046 36906 ft 493 kts 163°
2026-04-25 20:44 14.67486 -18.92597 36908 ft 493 kts 163°
2026-04-25 20:45 14.61043 -18.90148 36905 ft 493 kts 163°
2026-04-25 20:45 14.54605 -18.87701 36905 ft 493 kts 163°
2026-04-25 20:46 14.48168 -18.85261 36901 ft 493 kts 163°
2026-04-25 20:46 14.41724 -18.82861 36896 ft 492 kts 163°
2026-04-25 20:47 14.35476 -18.79940 36901 ft 497 kts 150°
2026-04-25 20:47 14.30312 -18.75184 36899 ft 503 kts 129°
2026-04-25 20:48 14.26781 -18.68944 36891 ft 506 kts 116°
2026-04-25 20:48 14.23941 -18.62288 36892 ft 507 kts 114°
2026-04-25 20:49 14.21164 -18.55601 36734 ft 507 kts 115°
2026-04-25 20:49 14.19741 -18.52274 36488 ft 508 kts 115°
2026-04-25 20:49 14.18304 -18.48946 36235 ft 509 kts 115°
2026-04-25 20:50 14.16859 -18.45621 35986 ft 508 kts 115°
2026-04-25 20:50 14.15411 -18.42297 35738 ft 509 kts 115°
2026-04-25 20:50 14.13961 -18.38973 35506 ft 509 kts 115°
2026-04-25 20:50 14.12508 -18.35646 35262 ft 509 kts 115°
2026-04-25 20:51 14.11051 -18.32315 35018 ft 510 kts 114°
2026-04-25 20:51 14.09590 -18.28978 34792 ft 511 kts 114°
2026-04-25 20:51 14.08128 -18.25637 34571 ft 512 kts 114°
2026-04-25 20:51 14.06664 -18.22293 34334 ft 513 kts 114°
2026-04-25 20:52 14.05197 -18.18944 34105 ft 513 kts 114°
2026-04-25 20:52 14.04719 -18.17854 34034 ft 514 kts 114°
2026-04-25 20:52 14.02252 -18.12229 33618 ft 515 kts 114°
2026-04-25 20:52 14.00777 -18.08868 33357 ft 515 kts 114°
2026-04-25 20:53 13.99465 -18.05436 33100 ft 515 kts 106°
2026-04-25 20:53 13.98694 -18.01853 32563 ft 512 kts 94°
2026-04-25 20:53 13.98738 -17.98199 31767 ft 511 kts 79°
2026-04-25 20:53 13.99706 -17.94718 31192 ft 503 kts 63°
2026-04-25 20:54 14.01519 -17.91684 30933 ft 496 kts 46°
2026-04-25 20:54 14.03862 -17.89083 30880 ft 497 kts 43°
2026-04-25 20:54 14.08477 -17.83725 30876 ft 502 kts 47°
2026-04-25 20:55 14.12822 -17.78093 30823 ft 501 kts 49°
2026-04-25 20:55 14.14222 -17.76220 30557 ft 497 kts 49°
2026-04-25 20:55 14.17015 -17.72443 30096 ft 498 kts 50°
2026-04-25 20:56 14.19087 -17.69623 29722 ft 502 kts 50°
2026-04-25 20:56 14.21188 -17.66755 29303 ft 502 kts 50°
2026-04-25 20:56 14.23287 -17.63881 28914 ft 500 kts 50°
2026-04-25 20:56 14.25367 -17.61029 28537 ft 496 kts 50°
2026-04-25 20:57 14.27436 -17.58193 28161 ft 494 kts 50°
2026-04-25 20:57 14.28826 -17.56286 27908 ft 492 kts 50°
2026-04-25 20:57 14.30867 -17.53484 27538 ft 484 kts 50°
2026-04-25 20:57 14.32870 -17.50732 27164 ft 475 kts 50°
2026-04-25 20:58 14.34837 -17.48031 26819 ft 467 kts 50°
2026-04-25 20:58 14.36772 -17.45379 26469 ft 460 kts 50°
2026-04-25 20:58 14.38700 -17.42729 25920 ft 463 kts 51°
2026-04-25 20:58 14.40638 -17.40061 25149 ft 466 kts 51°
2026-04-25 20:59 14.42580 -17.37376 24497 ft 466 kts 52°
2026-04-25 20:59 14.44160 -17.34458 23915 ft 468 kts 68°
2026-04-25 20:59 14.44903 -17.31255 23330 ft 468 kts 84°
2026-04-25 20:59 14.44762 -17.27915 22723 ft 466 kts 101°
2026-04-25 21:00 14.43729 -17.24772 22127 ft 462 kts 117°
2026-04-25 21:00 14.42579 -17.22887 21708 ft 459 kts 129°
2026-04-25 21:00 14.36614 -17.18732 20409 ft 443 kts 162°
2026-04-25 21:01 14.33681 -17.17836 19873 ft 436 kts 172°
2026-04-25 21:01 14.30691 -17.17547 19384 ft 429 kts 182°
2026-04-25 21:01 14.27725 -17.17574 18874 ft 424 kts 184°
2026-04-25 21:01 14.24786 -17.17638 18381 ft 420 kts 184°
2026-04-25 21:02 14.21871 -17.17698 17848 ft 418 kts 184°
2026-04-25 21:02 14.18981 -17.17760 17325 ft 413 kts 184°
2026-04-25 21:02 14.16120 -17.17828 16804 ft 408 kts 184°
2026-04-25 21:02 14.13299 -17.17895 16292 ft 404 kts 184°
2026-04-25 21:03 14.10494 -17.17799 15800 ft 403 kts 173°
2026-04-25 21:03 14.07840 -17.16902 15311 ft 403 kts 154°
2026-04-25 21:03 14.05595 -17.15229 14556 ft 397 kts 137°
2026-04-25 21:03 14.03974 -17.12952 13536 ft 395 kts 118°
2026-04-25 21:04 14.03151 -17.10272 12419 ft 394 kts 99°
2026-04-25 21:04 14.03251 -17.07477 11633 ft 392 kts 78°
2026-04-25 21:04 14.04254 -17.04896 11203 ft 388 kts 60°
2026-04-25 21:04 14.05774 -17.02626 10816 ft 381 kts 54°
2026-04-25 21:05 14.07403 -17.00525 10637 ft 369 kts 48°
2026-04-25 21:05 14.09312 -16.98824 10438 ft 359 kts 34°
2026-04-25 21:05 14.11523 -16.97731 10280 ft 349 kts 17°
2026-04-25 21:05 14.13889 -16.97420 10096 ft 340 kts 355°
2026-04-25 21:06 14.16141 -16.97997 9947 ft 329 kts 339°
2026-04-25 21:06 14.18237 -16.98849 9811 ft 319 kts 338°
2026-04-25 21:06 14.20265 -16.99704 9549 ft 309 kts 338°
2026-04-25 21:06 14.21567 -17.00252 9165 ft 302 kts 338°
2026-04-25 21:07 14.24144 -17.01333 8234 ft 294 kts 338°
2026-04-25 21:07 14.26009 -17.02113 7564 ft 286 kts 338°
2026-04-25 21:07 14.27835 -17.02877 6900 ft 280 kts 339°
2026-04-25 21:07 14.29617 -17.03621 6353 ft 274 kts 339°
2026-04-25 21:08 14.31383 -17.04359 6062 ft 273 kts 338°
2026-04-25 21:08 14.33139 -17.05090 5799 ft 271 kts 338°
2026-04-25 21:08 14.34879 -17.05821 5489 ft 270 kts 338°
2026-04-25 21:08 14.36615 -17.06502 5271 ft 262 kts 341°
2026-04-25 21:09 14.40053 -17.07128 4987 ft 241 kts 358°
2026-04-25 21:09 14.41714 -17.07144 4755 ft 238 kts 360°
2026-04-25 21:09 14.43345 -17.07154 4459 ft 237 kts 359°
2026-04-25 21:10 14.44958 -17.07167 4128 ft 224 kts 359°
2026-04-25 21:10 14.46438 -17.07175 3840 ft 203 kts
2026-04-25 21:10 14.47809 -17.07183 3631 ft 192 kts 359°
2026-04-25 21:10 14.49099 -17.07189 3362 ft 179 kts
2026-04-25 21:11 14.50295 -17.07197 3119 ft 164 kts
2026-04-25 21:11 14.51402 -17.07204 2923 ft 153 kts
2026-04-25 21:11 14.52428 -17.07209 2743 ft 142 kts
2026-04-25 21:11 14.53426 -17.07214 2595 ft 150 kts
2026-04-25 21:12 14.54507 -17.07218 2367 ft 158 kts 360°
2026-04-25 21:12 14.55592 -17.07227 2158 ft 151 kts
2026-04-25 21:12 14.56593 -17.07230 1973 ft 137 kts
2026-04-25 21:12 14.57215 -17.07235 1853 ft 130 kts
2026-04-25 21:13 14.58408 -17.07243 1651 ft 129 kts
2026-04-25 21:13 14.59308 -17.07247 1487 ft 131 kts 360°
2026-04-25 21:13 14.60205 -17.07249 1320 ft 128 kts
2026-04-25 21:13 14.61099 -17.07246 1128 ft 127 kts
2026-04-25 21:14 14.61986 -17.07241 981 ft 132 kts 359°
2026-04-25 21:14 14.62896 -17.07248 805 ft 130 kts 357°
2026-04-25 21:14 14.63790 -17.07254 642 ft 127 kts 355°
2026-04-25 21:14 14.64677 -17.07258 479 ft 127 kts 356°
2026-04-25 21:15 14.65541 -17.07264 292 ft 122 kts 359°
2026-04-25 21:15 14.66278 -17.07275 267 ft 82 kts 359°
2026-04-25 21:15 14.66733 -17.07278 273 ft 58 kts 359°
2026-04-25 21:15 14.67018 -17.07275 272 ft 17 kts 15°
2026-04-25 21:16 14.67079 -17.07193 271 ft 14 kts 90°
2026-04-25 21:16 14.67078 -17.07165 271 ft 0 kts 93°
2026-04-25 21:16 14.67078 -17.07164 271 ft 1 kts 93°
2026-04-25 21:16 14.67077 -17.07139 271 ft 8 kts 92°
2026-04-25 21:17 14.67077 -17.07070 272 ft 10 kts 89°
2026-04-25 21:17 14.67082 -17.07014 275 ft 6 kts 74°
2026-04-25 21:17 14.67116 -17.06983 275 ft 10 kts 25°
2026-04-25 21:17 14.67200 -17.06978 275 ft 13 kts 358°
2026-04-25 21:18 14.67290 -17.06980 275 ft 13 kts 359°
2026-04-25 21:18 14.67381 -17.06981 275 ft 13 kts 359°
2026-04-25 21:18 14.67475 -17.06981 275 ft 14 kts
2026-04-25 21:18 14.67536 -17.06921 275 ft 13 kts 79°
2026-04-25 21:19 14.67536 -17.06835 275 ft 10 kts 90°
2026-04-25 21:19 14.67536 -17.06770 275 ft 8 kts 91°
2026-04-25 21:19 14.67521 -17.06743 275 ft 3 kts 146°
2026-04-25 21:19 14.67481 -17.06739 275 ft 7 kts 177°
2026-04-25 21:20 14.67454 -17.06738 275 ft 0 kts 179°
2026-04-25 21:28 14.67455 -17.06738 275 ft 0 kts 179°